STARLINK-3256 (50202 NORAD) Tracking and Keplerian Element Data

This shows tracking and keplerian element data for the satellite.

Feedback or suggestion? Click here.




ElementValue
Catalog50202
NameSTARLINK-3256
Epoch Orbit2659
Epoch Day140.91667824
Epoch Year2022
RAAN353.5648
Inclination53.2164
Eccentricity0.0002084
Argument of Perigee46.434
Mean Anonmoly226.7064
Mean Motion15.08831502
Decay Rate-0.00018844
L11 50202U 21125AY 22140.91667824 -.00018844 00000+0 -11692-2 0 9999
L22 50202 53.2164 353.5648 0002084 46.4340 226.7064 15.08831502 26593

Live tracking and technical data element details for STARLINK-3256 (NORAD 50202). STARLINK-3256 can be tracked NOW for your location showing map with azimuth and elevation plus other details from your city location.

Track the satellite on the map from your city or location and see movement details for azimuth, elevation, latitude, longitude, range, height, and movement on the map or in text.







IsCatalogInMostPopularTable: catalog: 50202, numindb: 24
Update: records affected: 1



GetName: 50202 STARLINK-3256

Hit Count: updated at: Mon, 23 May 2022 20:19:34 GMT